DW9866 Weather Reports


time (UTC)temp
C
wind
direction
speed
KPH
gust
KPH
rain 1hr
cm
rain 24hr
cm
rain mn
cm
humidity
%
barometer
mb
20260506073059 16 204 20.9 40.2 0.00 0.71 0.00 56 1004.9
20260506071559 16 204 19.3 30.6 0.00 0.71 0.00 55 1005.1
20260506061556 17 204 19.3 37.0 0.00 0.71 0.00 53 1005.5
20260506044541 17 204 24.1 41.8 0.00 0.71 0.00 49 1006.2
20260506043032 17 204 16.1 33.8 0.00 0.71 0.00 49 1006.2
20260506041535 17 204 16.1 27.4 0.00 0.71 0.00 49 1006.4
20260506040029 17 204 16.1 29.0 0.00 0.71 0.00 49 1006.5
20260506034518 17 204 17.7 32.2 0.00 0.71 0.71 50 1006.5
20260506033016 17 204 12.9 29.0 0.00 0.71 0.71 50 1006.6
20260506031508 18 204 14.5 27.4 0.00 0.71 0.71 49 1006.7
20260506030046 18 204 14.5 30.6 0.00 0.71 0.71 49 1006.6
20260506024540 18 204 17.7 35.4 0.00 0.71 0.71 49 1006.6
20260506023003 18 204 19.3 32.2 0.00 0.71 0.71 49 1006.7
20260506021547 18 204 16.1 29.0 0.00 0.71 0.71 48 1006.7
20260506020026 19 204 14.5 25.7 0.00 0.71 0.71 47 1006.9
20260506014504 19 204 12.9 24.1 0.00 0.71 0.71 47 1006.9
20260506013043 20 204 9.7 24.1 0.00 0.71 0.71 45 1006.7
20260506011518 20 204 16.1 33.8 0.00 0.71 0.71 45 1006.4
20260506010056 20 204 12.9 24.1 0.00 0.71 0.71 45 1006.3
20260506004537 20 204 9.7 20.9 0.00 0.71 0.71 45 1006.3
20260506003015 20 204 9.7 20.9 0.00 0.71 0.71 45 1006.3
20260506001551 20 204 6.4 25.7 0.00 0.71 0.71 44 1006.3
20260506000028 20 204 12.9 37.0 0.00 0.71 0.71 44 1005.9
20260505234506 20 204 12.9 29.0 0.00 0.81 0.71 44 1005.7
20260505233043 20 204 12.9 29.0 0.00 0.81 0.71 44 1005.7
20260505231523 20 204 17.7 35.4 0.00 0.81 0.71 44 1005.4
20260505230111 21 204 20.9 37.0 0.00 0.81 0.71 44 1005.5
20260505224552 21 204 22.5 37.0 0.00 0.81 0.71 44 1005.4
20260505223027 21 204 17.7 38.6 0.00 0.81 0.71 45 1005.2
20260505221505 21 204 16.1 37.0 0.00 0.81 0.71 45 1005.2
20260505220040 21 204 19.3 35.4 0.00 0.81 0.71 44 1005.2
20260505214526 20 204 17.7 32.2 0.00 0.81 0.71 45 1005.1
20260505213105 20 204 16.1 30.6 0.00 0.81 0.71 46 1005.2
20260505211536 21 203 17.7 35.4 0.18 0.81 0.71 43 1005.1
20260505210015 21 204 12.9 38.6 0.28 0.81 0.71 42 1005.0
20260505204554 22 204 19.3 41.8 0.33 0.81 0.71 40 1004.9
20260505203030 22 204 22.5 49.9 0.33 0.81 0.71 40 1004.8
20260505201512 22 204 20.9 45.1 0.15 0.64 0.56 40 1004.7
20260505200047 22 204 16.1 40.2 0.15 0.53 0.46 40 1004.7
20260505194525 22 204 24.1 38.6 0.20 0.48 0.41 39 1004.7
20260505193005 22 204 14.5 41.8 0.20 0.48 0.41 38 1004.9
20260505191607 23 204 19.3 48.3 0.20 0.48 0.41 38 1004.9
20260505190024 22 204 22.5 49.9 0.20 0.38 0.30 37 1005.4
20260505184504 23 204 12.9 33.8 0.15 0.28 0.20 37 1005.7
20260505183044 23 204 9.7 32.2 0.15 0.28 0.20 38 1006.1
20260505181518 23 204 25.7 45.1 0.15 0.28 0.20 36 1006.0
20260505180105 23 204 20.9 46.7 0.05 0.18 0.10 38 1006.2
20260505174538 23 204 17.7 38.6 0.00 0.13 0.05 38 1006.3
20260505173017 22 208 8.0 35.4 0.00 0.13 0.05 41 1006.3
20260505171552 22 208 9.7 29.0 0.03 0.13 0.05 43 1006.4
20260505170030 23 204 6.4 24.1 0.05 0.13 0.05 43 1006.8
20260505164507 22 204 9.7 38.6 0.05 0.13 0.05 45 1006.8
20260505163044 22 204 11.3 37.0 0.05 0.13 0.05 45 1007.1
20260505161524 21 204 20.9 38.6 0.03 0.10 0.03 45 1007.2
20260505153023 21 204 6.4 33.8 0.00 0.08 0.00 49 1007.7
20260505151602 20 204 12.9 32.2 0.00 0.08 0.00 51 1007.7
20260505124520 17 204 11.3 25.7 0.00 0.08 0.00 58 1008.3
20260505123011 17 204 12.9 27.4 0.00 0.08 0.00 58 1008.3
20260505121559 16 204 12.9 32.2 0.00 0.08 0.00 59 1008.3
20260505121502 16 204 14.5 32.2 0.00 0.08 0.00 60 1008.4
20260505120056 15 204 11.3 22.5 0.00 0.08 0.00 63 1008.2
20260505114542 15 204 11.3 19.3 0.00 0.08 0.00 64 1008.0
20260505113030 15 204 11.3 17.7 0.00 0.08 0.00 66 1008.2
20260505111517 14 204 14.5 24.1 0.00 0.08 0.00 67 1008.1
20260505101531 13 204 17.7 27.4 0.00 0.08 0.00 69 1007.7
20260505100016 13 204 14.5 27.4 0.00 0.08 0.00 68 1007.7
20260505094504 13 204 16.1 30.6 0.00 0.08 0.00 68 1007.6
20260505093100 13 204 14.5 24.1 0.00 0.08 0.00 68 1007.5
20260505091544 13 204 12.9 24.1 0.00 0.08 0.00 68 1007.5
20260505090037 13 204 14.5 22.5 0.00 0.08 0.00 66 1007.5
20260505084527 13 204 11.3 22.5 0.00 0.08 0.00 65 1007.6
20260505083013 13 204 12.9 25.7 0.00 0.08 0.00 65 1007.7
20260505081624 13 204 14.5 25.7 0.00 0.08 0.00 64 1007.7